Location: Basse Occidentale du Courleau
(48.3833°N, 4.8333°W)
Time: 19:40:42
(UTC+00:00)

Cosmos 2184 Rocket - Pass Details

Date: 05 July 2020
Orbit: 960 x 1001 km, 82.9° (Epoch: 05 August)

Event Time Altitude Azimuth Distance (km) Brightness Sun altitude
Exits shadow 22:27:11 17° 178° (S) 2,272 5.4 -14.3°
Maximum altitude 22:32:10 74° 95° (E) 1,020 4.0 -14.7°
Drops below altitude 10° 22:38:29 10° 12° (NNE) 2,759 7.2 -15.1°
Sets 22:41:01 0° 11° (N) 3,717 8.0 -15.3°
